Location: ?
(35.6144°N, 139.6873°E)
Time: 14:23:39
(UTC+00:00)

Cosmos 1371 Rocket - Pass Details

Date: 23 May 2024
Orbit: 751 x 788 km, 74.0° (Epoch: 15 June)

Event Time Altitude Azimuth Distance (km) Brightness Sun altitude
Rises 11:13:39 0° 344° (NNW) 3,281 8.3 -15.7°
Reaches altitude 10° 11:16:03 10° 346° (NNW) 2,351 7.3 -16.1°
Maximum altitude 11:21:24 74° 72° (ENE) 820 4.0 -16.9°
Enters shadow 11:24:17 28° 152° (SSE) 1,445 4.9 -17.4°
